Kezdőlap
METAR-TAF:

METAR-TAF

Repülőterek :

Fremont Municipal Airport

Fremont, Nebraska, Amerikai Egyesült Államok

földrajzi szélesség: 41-27N, földrajzi hosszúság: 096-31W, magasság: 379 m

Jelenlegi meteorológiai megfigyelések

A jelentés 12 perccel ezelõtt készült, 13:55 UTC
Szélcsend
Hőmérséklet 0°C
Páratartalom 93%
Légköri nyomás 1028 hPa
Látótávolság: 16.1 km
Borult 9500 lábon

METAR: KFET 041355Z AUTO 00000KT 10SM OVC095 00/M01 A3036 RMK AO2 T00011011

Idő: 08:07 (14:07 UTC)


TAF: hiányzik

Meteorológiai megfigyelések és előrejelzések több, mint 4000 repülőtéren (METAR és TAF jelentéseket).

A térképen piros és sárga pontok jelzik az elérhető meteorológiai állomásokat.

Mozgassa az egeret a pont fölött, hogy megjelenjen az állomás neve.

Azután kattintson az időjárási megfigyelések és előrejelzések megtekintéséhez.

A térkép megváltoztatása: kattintson a fekete keresztel jelölt zöld gombra ráközelítéshez, a vonallal jelölt zöld gombra távolításhoz, vagy a zöld nyilakra a szomszédos térképek eléréséhez.


METAR-TAF: